| time (UTC) | temp F | wind direction | speed MPH | gust MPH | rain 1hr in | rain 24hr in | rain mn in | humidity % | barometer mb |
| 20260902113004 | 59 | 136 | 1.0 | 4.0 | 0.00 | 0.00 | 0.00 | 60 | 1013.0 |
| 20260902111528 | 58 | 148 | 7.0 | 9.0 | 0.00 | 0.00 | 0.00 | 64 | 1013.1 |
| 20260902110039 | 56 | 157 | 6.0 | 12.0 | 0.00 | 0.00 | 0.00 | 73 | 1013.3 |
| 20260902104527 | 56 | 137 | 2.0 | 3.0 | 0.00 | 0.00 | 0.00 | 74 | 1013.7 |
| 20260902103024 | 56 | 36 | 1.0 | 4.0 | 0.00 | 0.00 | 0.00 | 76 | 1014.2 |
| 20260902101504 | 55 | 95 | 2.0 | 2.0 | 0.00 | 0.00 | 0.00 | 79 | 1015.0 |
| 20260902100010 | 56 | 200 | 3.0 | 12.0 | 0.00 | 0.00 | 0.00 | 76 | 1015.2 |
| 20260902094515 | 57 | 234 | 1.0 | 9.0 | 0.00 | 0.00 | 0.00 | 72 | 1014.4 |
| 20260902093023 | 57 | 139 | 6.0 | 9.0 | 0.00 | 0.00 | 0.00 | 74 | 1015.1 |
| 20260902091527 | 57 | 168 | 4.0 | 7.0 | 0.00 | 0.00 | 0.00 | 76 | 1015.7 |
| 20260902090008 | 58 | 207 | 3.0 | 5.0 | 0.00 | 0.00 | 0.00 | 74 | 1015.9 |
| 20260902084515 | 58 | 63 | 2.0 | 3.0 | 0.00 | 0.00 | 0.00 | 70 | 1015.6 |
| 20260902083019 | 60 | 57 | 0.0 | 5.0 | 0.00 | 0.00 | 0.00 | 67 | 1015.8 |
| 20260902081528 | 61 | 324 | 2.0 | 9.0 | 0.00 | 0.00 | 0.00 | 60 | 1016.1 |
| 20260902080029 | 62 | 337 | 1.0 | 6.0 | 0.00 | 0.00 | 0.00 | 56 | 1015.6 |
| 20260902074512 | 62 | 360 | 0.0 | 6.0 | 0.00 | 0.00 | 0.00 | 58 | 1015.6 |
| 20260902073019 | 62 | 20 | 2.0 | 9.0 | 0.00 | 0.00 | 0.00 | 58 | 1015.6 |
| 20260902071533 | 62 | 174 | 1.0 | 10.0 | 0.00 | 0.00 | 0.00 | 55 | 1015.5 |
| 20260902070031 | 62 | 15 | 2.0 | 5.0 | 0.00 | 0.00 | 0.00 | 54 | 1015.2 |
| 20260902064532 | 61 | 59 | 1.0 | 5.0 | 0.00 | 0.00 | 0.00 | 57 | 1014.7 |
| 20260902063028 | 61 | 101 | 4.0 | 9.0 | 0.00 | 0.00 | 0.00 | 57 | 1014.5 |
| 20260902061539 | 66 | 254 | 1.0 | 6.0 | 0.00 | 0.00 | 0.00 | 46 | 1013.9 |
| 20260902060033 | 68 | 124 | 3.0 | 4.0 | 0.00 | 0.00 | 0.00 | 40 | 1013.3 |
| 20260902054543 | 69 | 99 | 2.0 | 7.0 | 0.00 | 0.00 | 0.00 | 39 | 1013.0 |
| 20260902053033 | 68 | 105 | 4.0 | 7.0 | 0.00 | 0.00 | 0.00 | 39 | 1012.9 |
| 20260902051517 | 69 | 134 | 5.0 | 14.0 | 0.00 | 0.00 | 0.00 | 39 | 1012.8 |
| 20260902050026 | 70 | 141 | 8.0 | 13.0 | 0.00 | 0.00 | 0.00 | 37 | 1013.2 |
| 20260902044529 | 70 | 163 | 7.0 | 15.0 | 0.00 | 0.00 | 0.00 | 38 | 1013.3 |
| 20260902043015 | 68 | 157 | 7.0 | 9.0 | 0.00 | 0.00 | 0.00 | 40 | 1013.1 |
| 20260902041519 | 68 | 123 | 3.0 | 5.0 | 0.00 | 0.00 | 0.00 | 43 | 1012.9 |
| 20260902040025 | 68 | 120 | 2.0 | 8.0 | 0.00 | 0.00 | 0.00 | 44 | 1013.0 |
| 20260902034505 | 69 | 100 | 6.0 | 9.0 | 0.00 | 0.00 | 0.00 | 44 | 1013.0 |
| 20260902033012 | 70 | 119 | 7.0 | 14.0 | 0.00 | 0.00 | 0.00 | 43 | 1013.0 |
| 20260902031512 | 71 | 134 | 8.0 | 17.0 | 0.00 | 0.00 | 0.00 | 41 | 1013.0 |
| 20260902030020 | 71 | 123 | 9.0 | 14.0 | 0.00 | 0.00 | 0.00 | 41 | 1012.8 |
| 20260902024505 | 70 | 110 | 7.0 | 10.0 | 0.00 | 0.00 | 0.00 | 42 | 1012.5 |
| 20260902023004 | 71 | 111 | 9.0 | 12.0 | 0.00 | 0.00 | 0.00 | 40 | 1012.5 |
| 20260902021517 | 70 | 95 | 6.0 | 9.0 | 0.00 | 0.00 | 0.00 | 42 | 1012.3 |
| 20260902020018 | 70 | 129 | 7.0 | 11.0 | 0.00 | 0.00 | 0.00 | 41 | 1012.5 |
| 20260902014531 | 71 | 131 | 7.0 | 10.0 | 0.00 | 0.00 | 0.00 | 41 | 1012.5 |
| 20260902013004 | 72 | 90 | 10.0 | 16.0 | 0.00 | 0.00 | 0.00 | 40 | 1012.1 |
| 20260902011510 | 73 | 88 | 7.0 | 11.0 | 0.00 | 0.00 | 0.00 | 39 | 1012.3 |
| 20260902010013 | 74 | 92 | 7.0 | 11.0 | 0.00 | 0.00 | 0.00 | 37 | 1012.2 |
| 20260902004526 | 75 | 136 | 3.0 | 5.0 | 0.00 | 0.00 | 0.00 | 33 | 1012.3 |
| 20260902003030 | 76 | 173 | 0.0 | 4.0 | 0.00 | 0.00 | 0.00 | 30 | 1012.5 |
| 20260902001508 | 77 | 123 | 1.0 | 9.0 | 0.00 | 0.00 | 0.00 | 26 | 1012.4 |
| 20260902000022 | 78 | 121 | 4.0 | 6.0 | 0.00 | 0.00 | 0.00 | 27 | 1012.6 |
| 20260901234517 | 79 | 312 | 1.0 | 4.0 | 0.00 | 0.00 | 0.00 | 24 | 1012.8 |
| 20260901233024 | 78 | 335 | 0.0 | 3.0 | 0.00 | 0.00 | 0.00 | 29 | 1013.0 |
| 20260901231533 | 78 | 53 | 2.0 | 3.0 | 0.00 | 0.00 | 0.00 | 27 | 1013.0 |
| 20260901230027 | 77 | 46 | 1.0 | 3.0 | 0.00 | 0.00 | 0.00 | 26 | 1013.2 |
| 20260901224520 | 77 | 85 | 0.0 | 4.0 | 0.00 | 0.00 | 0.00 | 25 | 1013.4 |
| 20260901223024 | 77 | 92 | 2.0 | 7.0 | 0.00 | 0.00 | 0.00 | 28 | 1013.5 |
| 20260901221526 | 77 | 9 | 1.0 | 3.0 | 0.00 | 0.00 | 0.00 | 27 | 1013.6 |
| 20260901220032 | 77 | 308 | 2.0 | 6.0 | 0.00 | 0.00 | 0.00 | 30 | 1013.9 |
| 20260901214512 | 77 | 251 | 4.0 | 9.0 | 0.00 | 0.00 | 0.00 | 28 | 1014.1 |
| 20260901213050 | 77 | 159 | 1.0 | 7.0 | 0.00 | 0.00 | 0.00 | 28 | 1014.2 |
| 20260901211536 | 76 | 225 | 3.0 | 9.0 | 0.00 | 0.00 | 0.00 | 33 | 1014.7 |
| 20260901210035 | 76 | 222 | 4.0 | 11.0 | 0.00 | 0.00 | 0.00 | 31 | 1014.9 |
| 20260901204531 | 75 | 218 | 4.0 | 10.0 | 0.00 | 0.00 | 0.00 | 33 | 1015.0 |
| 20260901203031 | 75 | 151 | 3.0 | 10.0 | 0.00 | 0.00 | 0.00 | 32 | 1015.2 |
| 20260901201523 | 75 | 179 | 7.0 | 11.0 | 0.00 | 0.00 | 0.00 | 32 | 1015.4 |
| 20260901200039 | 75 | 188 | 6.0 | 10.0 | 0.00 | 0.00 | 0.00 | 34 | 1015.5 |
| 20260901194530 | 73 | 128 | 4.0 | 15.0 | 0.00 | 0.00 | 0.00 | 37 | 1015.7 |
| 20260901193009 | 74 | 188 | 7.0 | 13.0 | 0.00 | 0.00 | 0.00 | 36 | 1015.9 |
| 20260901191513 | 71 | 95 | 7.0 | 10.0 | 0.00 | 0.00 | 0.00 | 37 | 1016.2 |
| 20260901190007 | 70 | 71 | 2.0 | 6.0 | 0.00 | 0.00 | 0.00 | 40 | 1016.4 |
| 20260901184509 | 69 | 329 | 3.0 | 6.0 | 0.00 | 0.00 | 0.00 | 43 | 1016.6 |
| 20260901183012 | 68 | 302 | 4.0 | 6.0 | 0.00 | 0.00 | 0.00 | 40 | 1016.6 |
| 20260901181516 | 69 | 96 | 1.0 | 8.0 | 0.00 | 0.00 | 0.00 | 39 | 1016.7 |
| 20260901180010 | 68 | 154 | 1.0 | 6.0 | 0.00 | 0.00 | 0.00 | 43 | 1016.8 |
| 20260901174508 | 69 | 145 | 3.0 | 14.0 | 0.00 | 0.00 | 0.00 | 41 | 1016.6 |
| 20260901173011 | 68 | 82 | 7.0 | 19.0 | 0.00 | 0.00 | 0.00 | 42 | 1016.6 |
| 20260901171520 | 68 | 172 | 14.0 | 18.0 | 0.00 | 0.00 | 0.00 | 41 | 1016.6 |
| 20260901170014 | 67 | 186 | 3.0 | 6.0 | 0.00 | 0.00 | 0.00 | 43 | 1016.5 |
| 20260901164510 | 65 | 196 | 4.0 | 9.0 | 0.00 | 0.00 | 0.00 | 45 | 1016.8 |
| 20260901163009 | 63 | 146 | 0.0 | 2.0 | 0.00 | 0.00 | 0.00 | 45 | 1017.0 |
| 20260901161512 | 62 | 69 | 1.0 | 2.0 | 0.00 | 0.00 | 0.00 | 42 | 1016.8 |
| 20260901160018 | 62 | 5 | 1.0 | 4.0 | 0.00 | 0.00 | 0.00 | 48 | 1016.6 |
| 20260901154518 | 64 | 34 | 1.0 | 7.0 | 0.00 | 0.00 | 0.00 | 43 | 1016.4 |
| 20260901153013 | 65 | 120 | 11.0 | 17.0 | 0.00 | 0.00 | 0.00 | 42 | 1016.5 |
| 20260901151512 | 59 | 146 | 5.0 | 11.0 | 0.00 | 0.00 | 0.00 | 43 | 1016.7 |
| 20260901150015 | 58 | 128 | 4.0 | 4.0 | 0.00 | 0.00 | 0.00 | 50 | 1017.1 |
| 20260901144520 | 58 | 78 | 0.0 | 2.0 | 0.00 | 0.00 | 0.00 | 58 | 1016.6 |
| 20260901143018 | 58 | 65 | 1.0 | 2.0 | 0.00 | 0.00 | 0.00 | 50 | 1016.6 |
| 20260901141507 | 58 | 220 | 1.0 | 2.0 | 0.00 | 0.00 | 0.00 | 52 | 1016.5 |
| 20260901140016 | 57 | 71 | 1.0 | 2.0 | 0.00 | 0.00 | 0.00 | 49 | 1016.3 |
| 20260901134520 | 55 | 123 | 2.0 | 2.0 | 0.00 | 0.00 | 0.00 | 51 | 1016.4 |
| 20260901133023 | 55 | 126 | 0.0 | 3.0 | 0.00 | 0.00 | 0.00 | 47 | 1016.3 |
| 20260901131526 | 56 | 78 | 1.0 | 2.0 | 0.00 | 0.00 | 0.00 | 44 | 1016.2 |
| 20260901130012 | 56 | 84 | 0.0 | 0.0 | 0.00 | 0.00 | 0.00 | 44 | 1016.2 |
| 20260901124517 | 55 | 76 | 0.0 | 2.0 | 0.00 | 0.00 | 0.00 | 44 | 1016.1 |
| 20260901123026 | 56 | 107 | 1.0 | 2.0 | 0.00 | 0.00 | 0.00 | 45 | 1016.1 |
| 20260901121534 | 58 | 86 | 1.0 | 2.0 | 0.00 | 0.00 | 0.00 | 41 | 1016.0 |
| 20260901120038 | 58 | 316 | 0.0 | 2.0 | 0.00 | 0.00 | 0.00 | 38 | 1015.7 |
| 20260901114517 | 59 | 84 | 0.0 | 1.0 | 0.00 | 0.00 | 0.00 | 37 | 1015.6 |